Regional Weather Roundup
Issued by NWS Nashville, TN

Home | Current Version | Previous Version | Text Only | Print | Product List | Glossary On
Versions: 1 2 3 4 5 6 7 8 9 10 11 12 13 14 15 16 17 18 19 20 21 22 23 24 25 26 27 28 29 30 31 32 33 34 35 36 37 38 39 40 41 42 43 44 45 46 47 48 49 50
000
ASUS44 KOHX 231315
RWROHX
MIDDLE TENNESSEE HOURLY WEATHER ROUNDUP
NATIONAL WEATHER SERVICE NASHVILLE TN
800 AM CDT SAT AUG 23 2014

NOTE: "FAIR" INDICATES FEW OR NO CLOUDS BELOW 12,000 FEET WITH
NO SIGNIFICANT WEATHER AND/OR OBSTRUCTIONS TO VISIBILITY.

* THESE REPORTS ARE NOT UNDER NWS QUALITY CONTROL AND MAY NOT
  REPORT WEATHER SUCH AS PRECIPITATION AND FOG.


TNZ005>011-023>034-057-059-062>066-078-080-231400
...NORTHERN MIDDLE TENNESSEE...

CITY           SKY/WX    TMP DP  RH WIND       PRES   REMARKS
CLARKSVILLE    CLOUDY    74  72  93 S6        30.01F
CROSSVILLE     LGT RAIN  72  69  90 CALM      30.10S
GALLATIN         N/A     78  77  97 CALM      30.03S
DICKSON        CLOUDY    75  72  88 CALM      30.03F
LEBANON        PTSUNNY   77  73  87 CALM      30.02
LIVINGSTON     PTSUNNY   74  70  87 SW3       30.06S
NASHVILLE      PTSUNNY   79  72  79 CALM      30.04R
WEST NASHVILLE   N/A     75  75 100 S3        30.03R
PORTLAND       PTSUNNY   75  70  83 CALM      30.02R
SMYRNA         MOSUNNY   77  74  90 CALM      30.04R
SPARTA         SUNNY     75  73  94 CALM      30.05S
$$
TNZ056-058-060-061-075>077-079-093>097-231400
...SOUTHERN MIDDLE TENNESSEE...

CITY           SKY/WX    TMP DP  RH WIND       PRES   REMARKS
COLUMBIA       SUNNY     77  77 100 CALM      30.04S
FAYETTEVILLE   SUNNY     75  72  88 CALM      30.06S
LEWISBURG      PTSUNNY   79  73  81 CALM      30.04S
MCMINNVILLE    SUNNY     77  77 100 CALM      30.05S
MURFREESBORO   MOSUNNY   77  72  84 CALM      30.03R
SHELBYVILLE    SUNNY     75  73  94 CALM      30.06S
TULLAHOMA      MOSUNNY   75  72  88 CALM      30.07S
WINCHESTER     SUNNY     75  72  88 CALM      30.06S
$$


...KEY TO REMARKS...
VSB - VISIBILITY IN MILES
WCI - WIND CHILL INDEX
HX  - HEAT INDEX



USA.gov is the U.S. government's official web portal to all federal, state and local government web resources and services.